When you browse on this site, cookies collect data to enhance your experience and personalize the content and advertising you see.
Visit our Privacy Policy to learn more. By continuing to use the site, you agree to this use of cookies and data.
  • In Czech Republic
  • List of Countries
  • For 7 days
  • Water Temperature
  • Weather Map
  • Weather Widgets
  • user-avatar
    Login

    Hourly Weather Gjirokaster

    Today, 23 August, Friday

    Time Temperature Precipitation Wind Pressure Humidity
    00:00 +19°C° 0 mm 1 mps 655 mmHg 54%
    01:00 +19°C° 0 mm 1 mps 655 mmHg 56%
    02:00 +19°C° 0 mm 1 mps 655 mmHg 55%
    03:00 +19°C° 0 mm 1 mps 655 mmHg 54%
    04:00 +18°C° 0 mm 2 mps 655 mmHg 54%
    05:00 +20°C° 0 mm 1 mps 656 mmHg 49%
    06:00 +22°C° 0 mm 1 mps 656 mmHg 44%
    07:00 +24°C° 0 mm 1 mps 657 mmHg 40%
    08:00 +26°C° 0 mm 1 mps 658 mmHg 36%
    09:00 +27°C° 0 mm 1 mps 658 mmHg 32%
    10:00 +29°C° 0 mm 1 mps 659 mmHg 28%
    11:00 +29°C° 0 mm 2 mps 658 mmHg 29%
    12:00 +29°C° 0 mm 2 mps 658 mmHg 29%
    13:00 +28°C° 0 mm 3 mps 657 mmHg 30%
    14:00 +28°C° 0 mm 3 mps 657 mmHg 32%
    15:00 +27°C° 0 mm 3 mps 657 mmHg 35%
    16:00 +26°C° 0 mm 3 mps 656 mmHg 37%
    17:00 +25°C° 0 mm 2 mps 656 mmHg 41%
    18:00 +23°C° 0 mm 2 mps 656 mmHg 44%
    19:00 +22°C° 0 mm 1 mps 655 mmHg 47%
    20:00 +21°C° 0.1 mm 1 mps 655 mmHg 50%
    21:00 +21°C° 0.1 mm 1 mps 655 mmHg 52%
    22:00 +20°C° 0.1 mm 1 mps 655 mmHg 54%
    23:00 +19°C° 0.1 mm 1 mps 655 mmHg 56%

    Tomorrow, 24 August, Saturday

    Time Temperature Precipitation Wind Pressure Humidity
    00:00 +19°C° 0.1 mm 1 mps 655 mmHg 57%
    01:00 +18°C° 0.1 mm 2 mps 655 mmHg 58%
    02:00 +17°C° 0 mm 2 mps 655 mmHg 57%
    03:00 +17°C° 0 mm 2 mps 654 mmHg 56%
    04:00 +17°C° 0 mm 2 mps 654 mmHg 56%
    05:00 +19°C° 0 mm 2 mps 655 mmHg 50%
    06:00 +21°C° 0 mm 2 mps 655 mmHg 45%
    07:00 +23°C° 0 mm 1 mps 656 mmHg 40%
    08:00 +25°C° 0 mm 2 mps 656 mmHg 35%
    09:00 +27°C° 0 mm 2 mps 657 mmHg 31%
    10:00 +29°C° 0 mm 2 mps 657 mmHg 27%
    11:00 +29°C° 0 mm 2 mps 657 mmHg 27%
    12:00 +29°C° 0 mm 2 mps 657 mmHg 27%
    13:00 +29°C° 0 mm 3 mps 656 mmHg 27%
    14:00 +28°C° 0 mm 3 mps 656 mmHg 30%
    15:00 +27°C° 0 mm 3 mps 656 mmHg 33%
    16:00 +26°C° 0 mm 3 mps 655 mmHg 36%
    17:00 +25°C° 0 mm 3 mps 655 mmHg 40%
    18:00 +23°C° 0 mm 2 mps 655 mmHg 44%
    19:00 +21°C° 0 mm 2 mps 654 mmHg 49%
    20:00 +20°C° 0 mm 2 mps 654 mmHg 49%
    21:00 +20°C° 0 mm 2 mps 654 mmHg 50%
    22:00 +19°C° 0 mm 2 mps 654 mmHg 50%
    23:00 +20°C° 0 mm 1 mps 654 mmHg 50%

    Day after tomorrow, 25 August, Sunday

    Time Temperature Precipitation Wind Pressure Humidity
    00:00 +19°C° 0 mm 1 mps 654 mmHg 51%
    01:00 +19°C° 0 mm 1 mps 653 mmHg 51%
    02:00 +18°C° 0 mm 1 mps 653 mmHg 50%
    03:00 +18°C° 0 mm 1 mps 653 mmHg 50%
    04:00 +17°C° 0 mm 2 mps 653 mmHg 49%
    05:00 +20°C° 0 mm 1 mps 653 mmHg 45%
    06:00 +21°C° 0 mm 1 mps 654 mmHg 42%
    07:00 +23°C° 0 mm 1 mps 655 mmHg 38%
    08:00 +25°C° 0 mm 1 mps 655 mmHg 34%
    09:00 +27°C° 0 mm 1 mps 656 mmHg 30%
    10:00 +29°C° 0 mm 1 mps 656 mmHg 26%
    11:00 +29°C° 0 mm 2 mps 656 mmHg 26%
    12:00 +29°C° 0 mm 2 mps 656 mmHg 27%
    13:00 +29°C° 0 mm 3 mps 655 mmHg 27%
    14:00 +28°C° 0 mm 3 mps 655 mmHg 29%
    15:00 +27°C° 0 mm 3 mps 655 mmHg 32%
    16:00 +26°C° 0 mm 3 mps 654 mmHg 35%
    17:00 +25°C° 0 mm 2 mps 654 mmHg 40%
    18:00 +23°C° 0 mm 2 mps 654 mmHg 45%
    19:00 +21°C° 0 mm 1 mps 653 mmHg 50%
    20:00 +19°C° 0 mm 2 mps 653 mmHg 53%
    21:00 +19°C° 0 mm 2 mps 654 mmHg 55%
    22:00 +18°C° 0 mm 2 mps 654 mmHg 58%
    23:00 +18°C° 0 mm 2 mps 653 mmHg 59%

    26 August, Monday

    Time Temperature Precipitation Wind Pressure Humidity
    00:00 +17°C° 0 mm 2 mps 653 mmHg 59%
    01:00 +17°C° 0 mm 2 mps 653 mmHg 59%
    02:00 +17°C° 0 mm 2 mps 653 mmHg 56%
    03:00 +17°C° 0 mm 2 mps 653 mmHg 54%
    04:00 +17°C° 0 mm 2 mps 653 mmHg 51%
    05:00 +19°C° 0 mm 1 mps 653 mmHg 46%
    06:00 +21°C° 0 mm 1 mps 654 mmHg 41%
    07:00 +23°C° 0 mm 1 mps 654 mmHg 36%
    08:00 +25°C° 0 mm 1 mps 655 mmHg 32%
    09:00 +27°C° 0 mm 1 mps 656 mmHg 29%
    10:00 +29°C° 0 mm 1 mps 656 mmHg 26%
    11:00 +29°C° 0 mm 2 mps 656 mmHg 26%
    12:00 +28°C° 0 mm 2 mps 656 mmHg 27%
    13:00 +28°C° 0 mm 3 mps 656 mmHg 27%
    14:00 +27°C° 0.1 mm 3 mps 655 mmHg 31%
    15:00 +26°C° 0.1 mm 2 mps 655 mmHg 35%
    16:00 +25°C° 0.1 mm 2 mps 654 mmHg 39%
    17:00 +24°C° 0 mm 2 mps 654 mmHg 42%
    18:00 +23°C° 0 mm 2 mps 654 mmHg 45%
    19:00 +21°C° 0 mm 2 mps 654 mmHg 48%
    20:00 +20°C° 0 mm 2 mps 654 mmHg 49%
    21:00 +19°C° 0 mm 2 mps 654 mmHg 51%
    22:00 +19°C° 0 mm 2 mps 654 mmHg 52%
    23:00 +19°C° 0 mm 2 mps 654 mmHg 52%

    27 August, Tuesday

    Time Temperature Precipitation Wind Pressure Humidity
    00:00 +19°C° 0 mm 1 mps 654 mmHg 52%
    01:00 +19°C° 0 mm 1 mps 654 mmHg 52%
    02:00 +19°C° 0 mm 1 mps 653 mmHg 51%
    03:00 +19°C° 0 mm 1 mps 653 mmHg 50%
    04:00 +19°C° 0 mm 1 mps 653 mmHg 49%
    05:00 +21°C° 0 mm 1 mps 654 mmHg 45%
    06:00 +22°C° 0 mm 1 mps 655 mmHg 41%
    07:00 +23°C° 0 mm 1 mps 655 mmHg 37%
    08:00 +25°C° 0 mm 1 mps 656 mmHg 34%
    09:00 +26°C° 0 mm 1 mps 656 mmHg 30%
    10:00 +28°C° 0 mm 1 mps 657 mmHg 27%
    11:00 +27°C° 0 mm 2 mps 656 mmHg 29%
    12:00 +26°C° 0 mm 2 mps 656 mmHg 32%
    13:00 +26°C° 0 mm 3 mps 656 mmHg 34%
    14:00 +25°C° 0 mm 2 mps 655 mmHg 37%
    15:00 +24°C° 0 mm 2 mps 655 mmHg 39%
    16:00 +23°C° 0 mm 2 mps 655 mmHg 42%
    17:00 +21°C° 0 mm 2 mps 655 mmHg 46%
    18:00 +21°C° 0 mm 1 mps 655 mmHg 49%
    19:00 +20°C° 0 mm 1 mps 654 mmHg 52%
    20:00 +20°C° 0 mm 1 mps 654 mmHg 54%
    21:00 +18°C° 0 mm 2 mps 654 mmHg 56%
    22:00 +18°C° 0 mm 2 mps 654 mmHg 57%
    23:00 +17°C° 0 mm 2 mps 654 mmHg 58%

    28 August, Wednesday

    Time Temperature Precipitation Wind Pressure Humidity
    00:00 +18°C° 0 mm 1 mps 654 mmHg 59%
    01:00 +16°C° 0 mm 1 mps 654 mmHg 60%
    02:00 +16°C° 0 mm 1 mps 653 mmHg 61%
    03:00 +16°C° 0 mm 1 mps 653 mmHg 62%
    04:00 +15°C° 0 mm 1 mps 653 mmHg 63%
    05:00 +18°C° 0 mm 1 mps 654 mmHg 57%
    06:00 +20°C° 0 mm 1 mps 654 mmHg 52%
    07:00 +22°C° 0 mm 1 mps 655 mmHg 46%
    08:00 +24°C° 0 mm 1 mps 655 mmHg 40%
    09:00 +26°C° 0 mm 1 mps 656 mmHg 35%
    10:00 +28°C° 0 mm 1 mps 656 mmHg 29%
    11:00 +27°C° 0 mm 1 mps 656 mmHg 31%
    12:00 +26°C° 0 mm 2 mps 656 mmHg 32%
    13:00 +25°C° 0 mm 2 mps 655 mmHg 34%
    14:00 +25°C° 0.1 mm 1 mps 655 mmHg 37%
    15:00 +24°C° 0.1 mm 1 mps 655 mmHg 39%
    16:00 +24°C° 0.1 mm 1 mps 654 mmHg 42%
    17:00 +22°C° 0 mm 1 mps 654 mmHg 46%
    18:00 +21°C° 0 mm 1 mps 654 mmHg 51%
    19:00 +20°C° 0 mm 1 mps 653 mmHg 56%
    20:00 +19°C° 0 mm 1 mps 653 mmHg 57%
    21:00 +19°C° 0 mm 1 mps 653 mmHg 59%
    22:00 +18°C° 0 mm 1 mps 653 mmHg 61%
    23:00 +18°C° 0 mm 1 mps 653 mmHg 61%
    Show more